QPF
0.00 0.00 0.00 0.00 0.00 0.00 0.00 0.00 0.01 0.02 0.02 0.02 0.02 0.03 0.03 0.03 0.02 0.02 0.01 0.00 0.00 0.00 0.00 0.00 0.01 0.01 0.00 0.01 0.01 0.00 0.01 0.01 0.01 0.02 0.03 0.02 0.02 0.02 0.02 0.01 0.00 0.00 0.01
0.00 0.00 0.00 0.00 0.00 0.00 0.00 0.00 0.00 0.01 0.01 0.01 0.01 0.02 0.02 0.02 0.02 0.02 0.02 0.01 0.00 0.00 0.00 0.00 0.00 0.00 0.01 0.00 0.00 0.00 0.01 0.01 0.01 0.02 0.04 0.05 0.05 0.04 0.01 0.01 0.01 0.01 0.01
0.00 0.00 0.00 0.00 0.00 0.00 0.00 0.00 0.00 0.00 0.01 0.00 0.01 0.01 0.01 0.02 0.03 0.03 0.03 0.02 0.01 0.01 0.00 0.00 0.01 0.00 0.01 0.01 0.00 0.00 0.01 0.02 0.02 0.01 0.03 0.04 0.04 0.04 0.03 0.02 0.01 0.00 0.01
0.00 0.00 0.00 0.00 0.00 0.00 0.00 0.01 0.01 0.00 0.00 0.01 0.01 0.01 0.02 0.03 0.02 0.02 0.02 0.03 0.02 0.02 0.01 0.00 0.00 0.00 0.00 0.01 0.01 0.00 0.01 0.02 0.02 0.01 0.02 0.03 0.03 0.03 0.03 0.03 0.02 0.01 0.01
0.00 0.00 0.00 0.00 0.00 0.01 0.01 0.01 0.01 0.00 0.00 0.01 0.01 0.01 0.01 0.02 0.01 0.01 0.01 0.02 0.02 0.02 0.02 0.01 0.01 0.00 0.00 0.01 0.01 0.00 0.01 0.01 0.01 0.01 0.01 0.02 0.03 0.02 0.02 0.03 0.04 0.03 0.02
0.00 0.00 0.00 0.00 0.00 0.00 0.01 0.01 0.01 0.01 0.00 0.01 0.01 0.01 0.01 0.01 0.01 0.01 0.01 0.01 0.02 0.02 0.02 0.01 0.00 0.00 0.00 0.01 0.01 0.01 0.01 0.01 0.01 0.01 0.01 0.02 0.03 0.03 0.02 0.02 0.03 0.03 0.03
0.00 0.00 0.00 0.00 0.00 0.01 0.01 0.01 0.01 0.00 0.00 0.00 0.01 0.01 0.01 0.01 0.02 0.01 0.01 0.01 0.01 0.01 0.02 0.01 0.01 0.01 0.00 0.01 0.01 0.01 0.01 0.01 0.01 0.01 0.01 0.01 0.02 0.03 0.03 0.03 0.02 0.02 0.02
0.00 0.00 0.00 0.00 0.00 0.00 0.00 0.00 0.00 0.00 0.00 0.00 0.00 0.00 0.01 0.01 0.01 0.01 0.00 0.01 0.01 0.01 0.02 0.02 0.02 0.02 0.02 0.00 0.00 0.01 0.01 0.01 0.02 0.01 0.01 0.01 0.02 0.03 0.04 0.04 0.02 0.02 0.02
0.00 0.00 0.00 0.00 0.00 0.00 0.00 0.00 0.00 0.00 0.00 0.00 0.01 0.00 0.00 0.01 0.01 0.01 0.00 0.01 0.01 0.01 0.01 0.01 0.02 0.03 0.03 0.02 0.01 0.01 0.01 0.01 0.01 0.01 0.02 0.03 0.02 0.03 0.03 0.03 0.02 0.02 0.03
0.00 0.00 0.00 0.00 0.00 0.00 0.00 0.00 0.00 0.00 0.00 0.00 0.00 0.00 0.00 0.00 0.01 0.01 0.01 0.01 0.01 0.01 0.01 0.02 0.02 0.02 0.03 0.03 0.03 0.02 0.02 0.02 0.01 0.01 0.02 0.03 0.02 0.02 0.03 0.02 0.02 0.02 0.04
0.00 0.00 0.00 0.00 0.00 0.00 0.00 0.00 0.00 0.00 0.00 0.00 0.00 0.00 0.00 0.00 0.01 0.01 0.00 0.00 0.01 0.01 0.01 0.01 0.02 0.01 0.01 0.02 0.03 0.02 0.03 0.02 0.01 0.01 0.01 0.01 0.01 0.03 0.05 0.03 0.02 0.02 0.03
0.01 0.00 0.00 0.00 0.00 0.00 0.01 0.01 0.01 0.01 0.01 0.00 0.00 0.00 0.00 0.00 0.00 0.00 0.00 0.01 0.01 0.00 0.00 0.00 0.01 0.01 0.02 0.02 0.02 0.02 0.03 0.03 0.02 0.01 0.01 0.00 0.01 0.02 0.04 0.04 0.03 0.03 0.02
0.01 0.00 0.00 0.00 0.00 0.00 0.00 0.00 0.01 0.01 0.01 0.00 0.00 0.00 0.00 0.00 0.00 0.01 0.01 0.01 0.01 0.00 0.00 0.01 0.01 0.01 0.02 0.02 0.02 0.02 0.02 0.03 0.03 0.03 0.02 0.01 0.01 0.02 0.02 0.02 0.03 0.03 0.03
0.01 0.01 0.01 0.00 0.00 0.00 0.00 0.00 0.00 0.00 0.01 0.01 0.00 0.00 0.01 0.01 0.01 0.01 0.01 0.00 0.01 0.01 0.01 0.01 0.01 0.02 0.01 0.01 0.01 0.03 0.02 0.02 0.02 0.02 0.03 0.02 0.02 0.03 0.03 0.03 0.03 0.03 0.03
0.01 0.01 0.02 0.01 0.00 0.00 0.00 0.00 0.00 0.00 0.00 0.01 0.01 0.01 0.01 0.01 0.01 0.01 0.01 0.01 0.01 0.01 0.01 0.01 0.01 0.02 0.02 0.02 0.02 0.02 0.03 0.03 0.03 0.03 0.03 0.03 0.04 0.05 0.05 0.04 0.02 0.02 0.02
0.00 0.01 0.01 0.01 0.00 0.00 0.00 0.00 0.00 0.01 0.01 0.01 0.01 0.01 0.01 0.01 0.01 0.01 0.01 0.02 0.02 0.02 0.01 0.01 0.01 0.01 0.02 0.03 0.03 0.03 0.03 0.04 0.05 0.06 0.04 0.03 0.04 0.04 0.05 0.03 0.02 0.03 0.03
0.00 0.00 0.00 0.00 0.00 0.00 0.00 0.00 0.00 0.00 0.01 0.01 0.01 0.01 0.01 0.01 0.01 0.01 0.02 0.02 0.02 0.02 0.02 0.02 0.01 0.01 0.02 0.03 0.03 0.04 0.04 0.05 0.07 0.06 0.04 0.03 0.02 0.02 0.02 0.02 0.02 0.02 0.02
0.00 0.00 0.00 0.00 0.00 0.00 0.00 0.00 0.00 0.00 0.01 0.01 0.01 0.01 0.00 0.00 0.01 0.01 0.01 0.02 0.02 0.02 0.02 0.01 0.01 0.01 0.02 0.02 0.03 0.04 0.03 0.04 0.05 0.04 0.04 0.03 0.03 0.02 0.03 0.02 0.02 0.01 0.01
0.00 0.00 0.00 0.00 0.00 0.00 0.00 0.00 0.00 0.00 0.01 0.01 0.01 0.01 0.01 0.01 0.01 0.01 0.01 0.02 0.02 0.02 0.02 0.01 0.01 0.01 0.01 0.01 0.02 0.03 0.03 0.03 0.03 0.02 0.03 0.03 0.03 0.03 0.04 0.03 0.02 0.02 0.01
0.00 0.00 0.00 0.00 0.00 0.00 0.00 0.00 0.00 0.01 0.01 0.02 0.03 0.02 0.02 0.01 0.01 0.02 0.02 0.02 0.02 0.02 0.02 0.02 0.02 0.02 0.01 0.01 0.02 0.03 0.03 0.04 0.03 0.02 0.02 0.02 0.02 0.03 0.03 0.03 0.03 0.02 0.02
0.00 0.00 0.00 0.00 0.00 0.00 0.00 0.00 0.01 0.01 0.02 0.02 0.02 0.02 0.02 0.02 0.02 0.02 0.02 0.02 0.03 0.04 0.03 0.03 0.02 0.02 0.01 0.01 0.02 0.04 0.03 0.04 0.03 0.01 0.01 0.02 0.03 0.02 0.02 0.02 0.02 0.02 0.03
0.00 0.00 0.00 0.00 0.00 0.00 0.00 0.01 0.01 0.01 0.02 0.02 0.02 0.02 0.02 0.01 0.01 0.02 0.03 0.03 0.03 0.04 0.04 0.04 0.03 0.02 0.02 0.02 0.03 0.04 0.05 0.05 0.04 0.01 0.01 0.01 0.03 0.03 0.02 0.01 0.01 0.02 0.03
0.00 0.00 0.01 0.01 0.01 0.01 0.01 0.01 0.01 0.01 0.01 0.01 0.02 0.01 0.01 0.01 0.02 0.02 0.04 0.04 0.04 0.04 0.04 0.04 0.04 0.02 0.02 0.02 0.03 0.04 0.05 0.05 0.04 0.02 0.02 0.02 0.03 0.03 0.02 0.01 0.01 0.01 0.02
0.00 0.01 0.01 0.01 0.01 0.01 0.01 0.01 0.01 0.01 0.01 0.01 0.01 0.02 0.01 0.01 0.02 0.03 0.04 0.04 0.04 0.04 0.04 0.04 0.03 0.03 0.02 0.02 0.02 0.02 0.03 0.03 0.03 0.02 0.02 0.03 0.04 0.03 0.02 0.02 0.01 0.01 0.01
0.00 0.01 0.01 0.01 0.01 0.01 0.01 0.01 0.01 0.01 0.01 0.01 0.01 0.02 0.02 0.02 0.02 0.03 0.03 0.03 0.03 0.03 0.04 0.03 0.03 0.02 0.02 0.02 0.02 0.02 0.03 0.02 0.02 0.02 0.02 0.02 0.03 0.03 0.02 0.02 0.02 0.02 0.02
0.00 0.01 0.01 0.01 0.01 0.01 0.01 0.01 0.01 0.01 0.01 0.01 0.01 0.02 0.03 0.03 0.03 0.03 0.03 0.04 0.04 0.04 0.04 0.05 0.05 0.03 0.03 0.03 0.02 0.02 0.03 0.03 0.03 0.02 0.02 0.02 0.02 0.02 0.02 0.02 0.03 0.03 0.03
MSLP
1009.77 1010.03 1010.23 1010.36 1010.44 1010.46 1010.47 1010.50 1010.56 1010.68 1010.84 1011.05 1011.29 1011.52 1011.72 1011.88 1011.98 1012.01 1011.99 1011.92 1011.80 1011.67 1011.54 1011.43 1011.34 1011.30 1011.29 1011.31 1011.34 1011.36 1011.33 1011.23 1011.06 1010.80 1010.47 1010.08 1009.67 1009.26 1008.88 1008.57 1008.33 1008.16 1008.06
1009.72 1010.09 1010.39 1010.59 1010.68 1010.70 1010.67 1010.65 1010.67 1010.76 1010.93 1011.17 1011.45 1011.74 1012.02 1012.24 1012.38 1012.44 1012.43 1012.35 1012.23 1012.08 1011.94 1011.81 1011.72 1011.67 1011.64 1011.65 1011.67 1011.66 1011.63 1011.53 1011.36 1011.10 1010.78 1010.39 1009.96 1009.52 1009.08 1008.68 1008.34 1008.06 1007.85
1009.50 1009.98 1010.38 1010.66 1010.80 1010.84 1010.80 1010.76 1010.77 1010.85 1011.02 1011.28 1011.60 1011.94 1012.27 1012.54 1012.72 1012.82 1012.83 1012.76 1012.65 1012.52 1012.38 1012.26 1012.16 1012.10 1012.08 1012.07 1012.06 1012.05 1012.00 1011.90 1011.74 1011.51 1011.20 1010.83 1010.41 1009.96 1009.49 1009.03 1008.61 1008.23 1007.90
1009.09 1009.66 1010.16 1010.52 1010.74 1010.83 1010.84 1010.82 1010.84 1010.94 1011.13 1011.41 1011.76 1012.13 1012.49 1012.79 1013.01 1013.14 1013.17 1013.14 1013.05 1012.94 1012.83 1012.72 1012.64 1012.58 1012.55 1012.52 1012.50 1012.47 1012.41 1012.32 1012.17 1011.97 1011.71 1011.38 1011.00 1010.56 1010.09 1009.60 1009.12 1008.66 1008.23
1008.52 1009.15 1009.73 1010.18 1010.49 1010.67 1010.76 1010.81 1010.88 1011.02 1011.25 1011.56 1011.93 1012.33 1012.71 1013.03 1013.27 1013.42 1013.48 1013.48 1013.43 1013.36 1013.27 1013.20 1013.13 1013.07 1013.03 1012.98 1012.94 1012.89 1012.82 1012.74 1012.62 1012.46 1012.26 1011.99 1011.66 1011.28 1010.83 1010.35 1009.84 1009.32 1008.82
1007.86 1008.52 1009.16 1009.69 1010.11 1010.39 1010.58 1010.73 1010.89 1011.10 1011.38 1011.73 1012.13 1012.54 1012.92 1013.25 1013.51 1013.68 1013.77 1013.81 1013.80 1013.76 1013.72 1013.67 1013.62 1013.56 1013.51 1013.44 1013.37 1013.30 1013.23 1013.15 1013.06 1012.95 1012.80 1012.61 1012.36 1012.04 1011.65 1011.20 1010.70 1010.16 1009.61
1007.24 1007.89 1008.55 1009.15 1009.65 1010.05 1010.36 1010.62 1010.88 1011.18 1011.52 1011.92 1012.34 1012.76 1013.16 1013.50 1013.76 1013.95 1014.07 1014.14 1014.17 1014.18 1014.17 1014.15 1014.11 1014.05 1013.98 1013.89 1013.79 1013.70 1013.61 1013.53 1013.46 1013.40 1013.32 1013.20 1013.04 1012.80 1012.47 1012.07 1011.60 1011.07 1010.51
1006.75 1007.37 1008.03 1008.66 1009.23 1009.72 1010.13 1010.51 1010.88 1011.26 1011.68 1012.12 1012.58 1013.02 1013.42 1013.76 1014.04 1014.24 1014.39 1014.50 1014.57 1014.61 1014.64 1014.64 1014.61 1014.56 1014.47 1014.35 1014.22 1014.10 1013.99 1013.90 1013.85 1013.82 1013.79 1013.74 1013.64 1013.48 1013.23 1012.88 1012.46 1011.96 1011.41
1006.49 1007.04 1007.67 1008.31 1008.92 1009.47 1009.97 1010.45 1010.91 1011.38 1011.86 1012.35 1012.84 1013.30 1013.71 1014.06 1014.35 1014.58 1014.76 1014.90 1015.00 1015.09 1015.15 1015.17 1015.15 1015.09 1014.98 1014.84 1014.68 1014.52 1014.39 1014.29 1014.23 1014.21 1014.21 1014.20 1014.15 1014.04 1013.85 1013.56 1013.18 1012.72 1012.19
1006.48 1006.97 1007.55 1008.17 1008.79 1009.37 1009.93 1010.47 1011.00 1011.54 1012.07 1012.61 1013.12 1013.60 1014.03 1014.40 1014.71 1014.96 1015.16 1015.34 1015.48 1015.60 1015.69 1015.73 1015.72 1015.66 1015.54 1015.38 1015.19 1015.00 1014.83 1014.71 1014.63 1014.60 1014.60 1014.59 1014.57 1014.49 1014.32 1014.07 1013.73 1013.30 1012.80
1006.70 1007.14 1007.68 1008.26 1008.86 1009.45 1010.03 1010.61 1011.18 1011.76 1012.34 1012.91 1013.45 1013.95 1014.39 1014.78 1015.10 1015.38 1015.62 1015.82 1016.00 1016.15 1016.26 1016.32 1016.32 1016.26 1016.13 1015.96 1015.75 1015.53 1015.33 1015.17 1015.06 1014.99 1014.96 1014.93 1014.89 1014.80 1014.63 1014.39 1014.06 1013.65 1013.17
1007.07 1007.48 1007.99 1008.53 1009.11 1009.68 1010.27 1010.86 1011.45 1012.06 1012.66 1013.25 1013.81 1014.32 1014.78 1015.19 1015.53 1015.82 1016.08 1016.31 1016.51 1016.68 1016.82 1016.90 1016.91 1016.86 1016.74 1016.56 1016.33 1016.10 1015.87 1015.67 1015.51 1015.39 1015.30 1015.22 1015.13 1015.00 1014.81 1014.54 1014.20 1013.79 1013.32
1007.49 1007.90 1008.38 1008.91 1009.46 1010.02 1010.60 1011.19 1011.79 1012.41 1013.02 1013.63 1014.20 1014.72 1015.19 1015.60 1015.95 1016.26 1016.53 1016.77 1016.99 1017.17 1017.32 1017.42 1017.45 1017.41 1017.30 1017.13 1016.91 1016.66 1016.41 1016.18 1015.97 1015.79 1015.63 1015.48 1015.31 1015.12 1014.87 1014.57 1014.20 1013.78 1013.30
1007.82 1008.26 1008.75 1009.28 1009.82 1010.38 1010.96 1011.55 1012.16 1012.79 1013.41 1014.02 1014.60 1015.12 1015.60 1016.00 1016.36 1016.66 1016.93 1017.18 1017.39 1017.58 1017.74 1017.84 1017.89 1017.87 1017.78 1017.63 1017.42 1017.18 1016.92 1016.65 1016.40 1016.15 1015.92 1015.69 1015.45 1015.18 1014.87 1014.52 1014.12 1013.67 1013.18
1007.99 1008.48 1009.01 1009.55 1010.11 1010.69 1011.28 1011.89 1012.52 1013.15 1013.79 1014.40 1014.98 1015.50 1015.97 1016.37 1016.71 1017.01 1017.26 1017.49 1017.70 1017.88 1018.03 1018.14 1018.21 1018.21 1018.15 1018.02 1017.84 1017.60 1017.34 1017.06 1016.76 1016.47 1016.17 1015.86 1015.54 1015.20 1014.84 1014.43 1014.00 1013.52 1013.01
1007.95 1008.50 1009.08 1009.67 1010.27 1010.88 1011.51 1012.15 1012.81 1013.47 1014.11 1014.73 1015.31 1015.83 1016.29 1016.68 1017.00 1017.28 1017.51 1017.72 1017.90 1018.07 1018.21 1018.33 1018.40 1018.42 1018.38 1018.29 1018.13 1017.92 1017.66 1017.37 1017.05 1016.72 1016.36 1016.00 1015.61 1015.22 1014.80 1014.35 1013.88 1013.39 1012.86
1007.70 1008.31 1008.95 1009.60 1010.26 1010.94 1011.62 1012.31 1013.00 1013.69 1014.36 1014.99 1015.57 1016.09 1016.54 1016.91 1017.22 1017.47 1017.68 1017.87 1018.03 1018.18 1018.31 1018.42 1018.50 1018.54 1018.53 1018.46 1018.32 1018.13 1017.89 1017.59 1017.26 1016.89 1016.50 1016.09 1015.67 1015.23 1014.77 1014.30 1013.81 1013.30 1012.76
1007.31 1007.97 1008.67 1009.38 1010.11 1010.85 1011.59 1012.34 1013.08 1013.81 1014.50 1015.16 1015.75 1016.28 1016.72 1017.09 1017.39 1017.63 1017.82 1017.99 1018.13 1018.27 1018.39 1018.50 1018.58 1018.63 1018.63 1018.58 1018.46 1018.29 1018.05 1017.76 1017.41 1017.02 1016.61 1016.17 1015.71 1015.25 1014.77 1014.29 1013.79 1013.27 1012.72
1006.88 1007.58 1008.31 1009.08 1009.87 1010.67 1011.47 1012.27 1013.06 1013.83 1014.56 1015.24 1015.85 1016.39 1016.85 1017.23 1017.54 1017.78 1017.98 1018.14 1018.28 1018.41 1018.52 1018.63 1018.71 1018.76 1018.76 1018.72 1018.61 1018.44 1018.20 1017.90 1017.54 1017.14 1016.70 1016.24 1015.77 1015.29 1014.81 1014.32 1013.83 1013.31 1012.75
1006.53 1007.23 1007.99 1008.79 1009.62 1010.46 1011.31 1012.16 1012.99 1013.79 1014.55 1015.26 1015.90 1016.47 1016.96 1017.36 1017.70 1017.96 1018.18 1018.36 1018.52 1018.65 1018.77 1018.87 1018.94 1018.99 1018.98 1018.93 1018.82 1018.64 1018.38 1018.07 1017.69 1017.27 1016.82 1016.35 1015.87 1015.38 1014.90 1014.41 1013.92 1013.40 1012.84
1006.34 1007.03 1007.78 1008.59 1009.43 1010.30 1011.17 1012.05 1012.90 1013.73 1014.52 1015.26 1015.93 1016.54 1017.07 1017.52 1017.90 1018.21 1018.47 1018.69 1018.87 1019.02 1019.14 1019.24 1019.31 1019.34 1019.32 1019.25 1019.11 1018.91 1018.63 1018.29 1017.90 1017.46 1016.99 1016.51 1016.02 1015.53 1015.05 1014.57 1014.07 1013.56 1013.00
1006.37 1007.02 1007.75 1008.54 1009.38 1010.24 1011.11 1011.99 1012.85 1013.69 1014.50 1015.26 1015.97 1016.61 1017.19 1017.70 1018.14 1018.52 1018.84 1019.10 1019.32 1019.49 1019.63 1019.73 1019.79 1019.80 1019.76 1019.66 1019.49 1019.25 1018.95 1018.59 1018.17 1017.71 1017.23 1016.74 1016.24 1015.76 1015.28 1014.80 1014.31 1013.80 1013.23
1006.62 1007.22 1007.91 1008.67 1009.47 1010.30 1011.15 1012.01 1012.86 1013.69 1014.50 1015.28 1016.02 1016.71 1017.34 1017.91 1018.41 1018.86 1019.24 1019.56 1019.82 1020.02 1020.17 1020.28 1020.32 1020.32 1020.25 1020.11 1019.92 1019.65 1019.32 1018.94 1018.50 1018.04 1017.55 1017.06 1016.57 1016.08 1015.61 1015.14 1014.65 1014.14 1013.57
1007.04 1007.59 1008.23 1008.94 1009.69 1010.48 1011.28 1012.11 1012.93 1013.74 1014.55 1015.33 1016.09 1016.81 1017.48 1018.11 1018.68 1019.18 1019.62 1019.98 1020.28 1020.52 1020.69 1020.79 1020.83 1020.81 1020.72 1020.56 1020.34 1020.06 1019.72 1019.33 1018.89 1018.43 1017.95 1017.47 1016.99 1016.52 1016.06 1015.59 1015.11 1014.60 1014.04
1007.55 1008.06 1008.65 1009.30 1010.00 1010.73 1011.48 1012.26 1013.04 1013.83 1014.61 1015.39 1016.15 1016.89 1017.60 1018.27 1018.88 1019.43 1019.91 1020.32 1020.65 1020.91 1021.09 1021.20 1021.24 1021.21 1021.11 1020.95 1020.73 1020.45 1020.11 1019.73 1019.32 1018.88 1018.43 1017.97 1017.52 1017.07 1016.63 1016.18 1015.71 1015.20 1014.64
1008.07 1008.54 1009.08 1009.68 1010.33 1011.00 1011.71 1012.43 1013.17 1013.92 1014.68 1015.44 1016.20 1016.94 1017.66 1018.35 1018.99 1019.56 1020.07 1020.51 1020.86 1021.14 1021.33 1021.45 1021.49 1021.47 1021.39 1021.24 1021.04 1020.79 1020.49 1020.15 1019.78 1019.39 1018.98 1018.57 1018.15 1017.74 1017.31 1016.88 1016.42 1015.92 1015.37
Thickness
5751 5751 5750 5748 5746 5744 5742 5739 5736 5734 5731 5727 5724 5722 5720 5721 5721 5721 5720 5719 5718 5716 5715 5713 5712 5710 5708 5707 5706 5704 5703 5702 5703 5700 5698 5700 5702 5702 5701 5701 5700 5698 5698
5747 5746 5746 5743 5742 5740 5738 5737 5734 5731 5729 5725 5723 5721 5719 5718 5718 5717 5716 5715 5714 5712 5711 5710 5708 5706 5704 5703 5701 5700 5697 5697 5698 5694 5689 5686 5688 5693 5697 5696 5694 5694 5694
5745 5743 5742 5740 5738 5736 5735 5735 5732 5729 5726 5724 5721 5718 5716 5714 5712 5711 5711 5711 5710 5708 5707 5706 5704 5703 5701 5698 5697 5696 5693 5690 5692 5693 5687 5680 5677 5681 5687 5690 5690 5690 5689
5746 5743 5740 5737 5735 5733 5733 5732 5729 5727 5724 5721 5717 5713 5708 5705 5707 5707 5707 5707 5706 5705 5703 5702 5700 5699 5697 5695 5693 5693 5690 5687 5684 5687 5688 5686 5683 5676 5674 5680 5684 5685 5684
5745 5742 5739 5736 5734 5732 5730 5729 5727 5724 5721 5719 5715 5711 5708 5707 5706 5705 5703 5702 5702 5701 5699 5697 5696 5694 5692 5691 5690 5688 5687 5685 5682 5681 5681 5681 5680 5679 5673 5669 5673 5676 5679
5743 5741 5739 5736 5732 5730 5727 5725 5722 5720 5718 5716 5713 5709 5706 5705 5702 5700 5698 5697 5696 5696 5695 5694 5692 5690 5688 5687 5685 5684 5683 5681 5680 5679 5678 5676 5674 5672 5671 5668 5667 5667 5671
5741 5737 5734 5730 5727 5725 5723 5721 5718 5715 5715 5713 5711 5709 5706 5703 5700 5698 5695 5693 5691 5690 5690 5690 5688 5686 5684 5683 5682 5679 5678 5677 5676 5675 5674 5675 5674 5674 5672 5667 5664 5664 5665
5738 5735 5732 5728 5725 5723 5720 5718 5715 5712 5711 5710 5708 5707 5704 5701 5698 5697 5694 5692 5689 5688 5688 5686 5684 5682 5681 5679 5677 5675 5674 5674 5672 5672 5671 5671 5671 5672 5670 5666 5661 5657 5657
5733 5731 5730 5727 5724 5720 5718 5715 5712 5709 5708 5707 5705 5703 5701 5698 5696 5695 5693 5690 5688 5687 5685 5683 5681 5679 5677 5675 5673 5671 5670 5669 5668 5668 5667 5667 5667 5668 5667 5666 5663 5655 5649
5729 5727 5725 5724 5722 5719 5716 5713 5710 5707 5705 5703 5701 5700 5697 5695 5693 5691 5689 5687 5686 5684 5682 5680 5678 5676 5673 5671 5669 5667 5666 5665 5664 5664 5663 5662 5662 5662 5662 5662 5660 5658 5652
5722 5722 5720 5719 5717 5714 5712 5708 5706 5703 5700 5699 5697 5695 5693 5691 5689 5686 5685 5684 5682 5681 5679 5676 5674 5672 5669 5667 5665 5663 5662 5660 5659 5659 5659 5658 5658 5657 5657 5656 5655 5653 5650
5716 5716 5715 5713 5710 5707 5705 5703 5700 5698 5695 5694 5692 5690 5688 5686 5684 5682 5681 5679 5677 5676 5674 5672 5670 5668 5666 5664 5661 5659 5658 5656 5655 5655 5654 5654 5654 5652 5652 5651 5649 5648 5647
5711 5709 5706 5705 5703 5701 5699 5697 5694 5692 5691 5688 5686 5684 5682 5680 5678 5676 5675 5674 5672 5670 5669 5667 5665 5663 5661 5659 5657 5656 5654 5653 5652 5652 5650 5650 5649 5647 5647 5646 5645 5644 5644
5703 5700 5697 5697 5696 5694 5692 5690 5688 5687 5685 5682 5679 5677 5676 5674 5672 5671 5669 5667 5666 5664 5662 5661 5659 5658 5656 5654 5653 5651 5650 5650 5649 5649 5647 5646 5646 5644 5643 5642 5640 5639 5637
5695 5693 5690 5689 5688 5687 5685 5683 5681 5680 5678 5675 5672 5671 5670 5669 5666 5664 5662 5660 5659 5657 5656 5654 5653 5651 5650 5649 5647 5646 5645 5645 5644 5644 5643 5643 5643 5642 5640 5639 5636 5634 5631
5686 5685 5685 5683 5682 5681 5679 5676 5674 5673 5671 5668 5665 5664 5663 5661 5658 5656 5654 5652 5650 5649 5648 5646 5645 5643 5643 5643 5642 5640 5640 5640 5639 5638 5638 5639 5638 5637 5636 5634 5633 5631 5628
5678 5678 5678 5677 5676 5676 5674 5670 5668 5666 5663 5660 5658 5656 5655 5652 5650 5648 5646 5644 5642 5641 5639 5638 5637 5635 5633 5634 5634 5634 5634 5633 5634 5633 5633 5634 5634 5632 5630 5629 5628 5626 5625
5670 5671 5672 5672 5671 5671 5669 5666 5662 5659 5656 5653 5650 5649 5646 5644 5642 5639 5637 5635 5635 5633 5630 5629 5628 5627 5627 5627 5626 5626 5626 5627 5627 5628 5627 5627 5626 5627 5625 5623 5622 5620 5620
5664 5664 5665 5665 5665 5664 5663 5659 5654 5651 5648 5645 5643 5641 5638 5636 5633 5630 5628 5627 5625 5624 5622 5621 5620 5618 5618 5618 5619 5618 5617 5618 5620 5621 5622 5622 5620 5621 5620 5617 5615 5614 5613
5656 5656 5656 5657 5656 5656 5655 5651 5646 5643 5640 5637 5635 5633 5631 5628 5625 5623 5621 5619 5617 5616 5615 5613 5612 5611 5609 5610 5610 5610 5610 5610 5612 5613 5614 5615 5614 5614 5613 5611 5608 5606 5605
5646 5647 5647 5646 5646 5647 5645 5642 5638 5635 5634 5631 5628 5625 5622 5620 5618 5616 5614 5611 5610 5608 5606 5605 5605 5604 5603 5602 5602 5602 5602 5603 5604 5605 5605 5606 5606 5605 5605 5604 5602 5600 5599
5635 5636 5635 5635 5636 5637 5635 5632 5629 5628 5626 5623 5619 5617 5614 5612 5611 5608 5606 5604 5602 5599 5598 5596 5596 5596 5596 5595 5594 5595 5596 5596 5596 5596 5597 5597 5598 5597 5596 5595 5594 5594 5592
5624 5625 5624 5624 5625 5626 5625 5621 5620 5620 5617 5613 5609 5607 5606 5604 5602 5599 5597 5595 5593 5591 5590 5589 5588 5588 5588 5587 5587 5587 5587 5588 5587 5587 5588 5588 5588 5587 5586 5586 5586 5585 5583
5614 5614 5614 5613 5613 5615 5614 5612 5611 5610 5607 5603 5601 5599 5597 5595 5593 5591 5589 5586 5584 5583 5583 5582 5580 5580 5580 5579 5579 5579 5578 5578 5577 5577 5578 5579 5578 5578 5577 5577 5576 5576 5574
5604 5604 5603 5603 5603 5604 5603 5603 5601 5599 5596 5594 5592 5589 5587 5585 5583 5581 5579 5578 5577 5577 5576 5575 5575 5573 5572 5573 5573 5571 5571 5570 5569 5569 5568 5568 5568 5568 5568 5567 5567 5566 5565
5594 5594 5594 5593 5593 5593 5592 5592 5592 5590 5587 5585 5583 5580 5578 5575 5573 5571 5570 5570 5570 5570 5570 5569 5568 5568 5567 5566 5566 5565 5564 5563 5562 5560 5559 5559 5559 5559 5559 5558 5558 5557 5556